CQ0XBF-11 Chamusca PT current weather conditions

sailwx.info

Wind from 099

Air temperature 20.6° C
Dewpoint 13.5° C

Last reported at 2014-Oct-01 07:49 UTC.
Time now 2014-Oct-01 08:20 UTC

Location: N 39°21' W 008°28'.
View on Google Maps.

See reports from other nearby stations

  
Tides and Currents Weather Stations Pressure Air Temp Water Temp Dewpoint Dewpoint Depression Visibility Wind Speed Wind Dir Waves Ship Positions
date/time (UTC)wind fromknots sea level pressurealtimeterstation pressurevisibilityair tempwater tempwave heightnotes
2014-Oct-01 07:49 099 20.6
2014-Oct-01 07:45 099 21.1
2014-Oct-01 07:39 091 21.1
2014-Oct-01 07:35 091 20.6
2014-Oct-01 07:29 091 20.6
2014-Oct-01 07:25 091 20.0
2014-Oct-01 07:21 091 19.4
2014-Oct-01 07:15 091 18.9
2014-Oct-01 07:11 091 18.3
2014-Oct-01 07:04 091 18.3
2014-Oct-01 07:00 091 17.8
2014-Oct-01 06:54 091 17.2
2014-Oct-01 06:50 091 16.7
2014-Oct-01 06:44 091 16.7
2014-Oct-01 06:40 091 16.1
2014-Oct-01 06:34 091 16.7
2014-Oct-01 06:30 091 16.1
2014-Oct-01 06:24 091 16.7
2014-Oct-01 06:20 091 16.7
2014-Oct-01 06:14 091 16.7
2014-Oct-01 06:08 091 16.7
2014-Oct-01 06:06 091 16.7
2014-Oct-01 05:58 091 16.7
2014-Oct-01 05:56 091 16.7
2014-Oct-01 05:50 091 16.7
2014-Oct-01 05:45 092 16.7
2014-Oct-01 05:39 092 16.7
2014-Oct-01 05:35 092 16.7
2014-Oct-01 05:29 092 17.2
2014-Oct-01 05:25 075 16.7
2014-Oct-01 05:19 105 17.2
2014-Oct-01 05:15 105 17.2
2014-Oct-01 05:09 105 16.7
2014-Oct-01 05:05 105 17.2
2014-Oct-01 04:59 105 17.2
2014-Oct-01 04:55 105 17.2
2014-Oct-01 04:51 095 17.2
2014-Oct-01 04:45 068 17.2
2014-Oct-01 04:41 098 17.2
2014-Oct-01 04:35 039 17.2
2014-Oct-01 04:30 074 17.2
2014-Oct-01 04:24 094 0 gusting 2 17.2
2014-Oct-01 04:20 126 17.2
2014-Oct-01 04:14 126 17.2
2014-Oct-01 04:10 080 17.2
2014-Oct-01 04:04 080 17.2
2014-Oct-01 04:00 080 17.2
2014-Oct-01 03:54 070 0 gusting 1 17.2
2014-Oct-01 03:50 070 17.2
2014-Oct-01 03:44 094 17.2
2014-Oct-01 03:40 094 17.2
2014-Oct-01 03:36 094 17.2
2014-Oct-01 03:30 094 17.8
2014-Oct-01 03:26 094 17.2
2014-Oct-01 03:18 094 17.2
2014-Oct-01 03:16 094 17.8
2014-Oct-01 03:09 094 17.8
2014-Oct-01 03:05 094 17.8
2014-Oct-01 02:59 094 17.8
2014-Oct-01 02:55 094 17.8
2014-Oct-01 02:49 094 17.8
2014-Oct-01 02:45 094 17.8
2014-Oct-01 02:39 094 17.8
2014-Oct-01 02:35 094 17.8
2014-Oct-01 02:29 094 17.8
2014-Oct-01 02:25 094 17.8
2014-Oct-01 02:19 094 17.8
2014-Oct-01 02:15 094 17.8
2014-Oct-01 02:11 094 18.3
2014-Oct-01 02:05 094 18.3
2014-Oct-01 02:01 094 18.3
2014-Oct-01 01:54 080 18.3
2014-Oct-01 01:50 080 18.3
2014-Oct-01 01:44 080 18.3
2014-Oct-01 01:40 080 18.3
2014-Oct-01 01:34 080 18.3
2014-Oct-01 01:30 080 18.3
2014-Oct-01 01:24 305 18.3
2014-Oct-01 01:20 305 18.9
2014-Oct-01 01:14 305 18.9
2014-Oct-01 01:10 305 18.9
2014-Oct-01 01:04 305 18.9
2014-Oct-01 01:00 305 18.9
2014-Oct-01 00:56 305 18.9
2014-Oct-01 00:50 305 18.9
2014-Oct-01 00:46 305 18.9
2014-Oct-01 00:40 305 18.9
2014-Oct-01 00:35 305 18.9
2014-Oct-01 00:29 305 18.9
2014-Oct-01 00:25 305 18.9
2014-Oct-01 00:19 305 18.9
2014-Oct-01 00:15 305 19.4
2014-Oct-01 00:09 305 19.4
2014-Oct-01 00:05 305 19.4
2014-Sep-30 23:59 333 19.4
2014-Sep-30 23:55 333 19.4
2014-Sep-30 23:49 333 19.4
2014-Sep-30 23:45 333 19.4
2014-Sep-30 23:41 327 19.4
2014-Sep-30 23:35 327 19.4
2014-Sep-30 23:31 327 20.0
2014-Sep-30 23:25 303 20.0
2014-Sep-30 23:20 303 20.0
2014-Sep-30 23:14 336 20.0
2014-Sep-30 23:10 354 20.0
2014-Sep-30 23:04 354 20.0
2014-Sep-30 23:00 112 20.0
2014-Sep-30 22:54 112 20.0
2014-Sep-30 22:50 112 20.0
2014-Sep-30 22:44 334 20.0
2014-Sep-30 22:40 334 20.0
2014-Sep-30 22:34 326 20.0
2014-Sep-30 22:30 20.0
2014-Sep-30 22:26 20.0
2014-Sep-30 22:20 345 20.0
2014-Sep-30 22:16 345 20.0
2014-Sep-30 22:08 303 20.6
2014-Sep-30 22:06 20.6
2014-Sep-30 21:59 341 20.6
2014-Sep-30 21:55 267 20.6
2014-Sep-30 21:49 115 21.1
2014-Sep-30 21:45 115 21.1
2014-Sep-30 21:39 288 21.1
2014-Sep-30 21:35 288 20.6
2014-Sep-30 21:29 288 21.1
2014-Sep-30 21:25 348 21.1
2014-Sep-30 21:19 320 21.1
2014-Sep-30 21:15 293 21.1
2014-Sep-30 21:09 341 21.1
2014-Sep-30 21:05 329 21.1
2014-Sep-30 21:01 324 21.7
2014-Sep-30 20:55 315 21.7
2014-Sep-30 20:51 21.7
2014-Sep-30 20:44 258 22.2
2014-Sep-30 20:40 312 22.2
2014-Sep-30 20:34 236 22.2
2014-Sep-30 20:30 338 22.2
2014-Sep-30 20:24 309 22.8
2014-Sep-30 20:20 330 0 gusting 3 22.8
2014-Sep-30 20:14 285 22.8
2014-Sep-30 20:10 285 22.8
2014-Sep-30 20:04 352 22.8
2014-Sep-30 20:00 313 0 23.3
2014-Sep-30 19:54 305 23.3
2014-Sep-30 19:50 012 23.3
2014-Sep-30 19:46 307 2 gusting 0 23.3
2014-Sep-30 19:40 319 23.3
2014-Sep-30 19:36 343 2 23.9
2014-Sep-30 19:30 337 23.9
2014-Sep-30 19:25 005 23.9
2014-Sep-30 19:19 326 24.4
2014-Sep-30 19:15 326 24.4
2014-Sep-30 19:09 326 25.0
2014-Sep-30 19:05 326 25.0
2014-Sep-30 18:59 326 25.0
2014-Sep-30 18:55 326 25.0
2014-Sep-30 18:49 324 25.6
2014-Sep-30 18:45 001 25.6
2014-Sep-30 18:39 001 25.6
2014-Sep-30 18:35 345 26.1
2014-Sep-30 18:31 345 26.1
2014-Sep-30 18:25 004 26.7
2014-Sep-30 18:21 358 26.7
2014-Sep-30 18:15 358 26.7
2014-Sep-30 18:10 358 26.7
2014-Sep-30 18:04 001 27.2
2014-Sep-30 17:48 002 27.8
2014-Sep-30 17:44 340 28.3
2014-Sep-30 17:40 358 28.9
2014-Sep-30 17:34 109 30.0
2014-Sep-30 17:30 109 30.6
2014-Sep-30 17:24 109 30.6
2014-Sep-30 17:20 109 30.6
2014-Sep-30 17:16 109 30.6
2014-Sep-30 17:08 109 30.0
2014-Sep-30 17:06 109 30.0
2014-Sep-30 17:00 109 30.0
2014-Sep-30 16:56 109 30.0
2014-Sep-30 16:49 109 30.0
2014-Sep-30 16:43 109 30.0
2014-Sep-30 16:39 109 30.6
2014-Sep-30 16:35 109 30.0
2014-Sep-30 16:29 109 30.0
2014-Sep-30 16:25 109 29.4
2014-Sep-30 16:19 109 28.9
2014-Sep-30 16:15 066 28.9
2014-Sep-30 16:09 094 29.4
2014-Sep-30 16:05 094 28.9
2014-Sep-30 15:55 075 29.4
2014-Sep-30 15:51 075 29.4
2014-Sep-30 15:45 075 29.4
2014-Sep-30 15:41 075 29.4
2014-Sep-30 15:34 074 29.4
2014-Sep-30 15:30 074 30.0
2014-Sep-30 15:24 081 30.0
2014-Sep-30 15:20 081 29.4
2014-Sep-30 15:14 081 29.4
2014-Sep-30 15:10 081 28.9
2014-Sep-30 15:04 099 0 gusting 1 29.4
2014-Sep-30 15:00 088 29.4
2014-Sep-30 14:54 088 28.9
2014-Sep-30 14:50 043 28.9
2014-Sep-30 14:44 132 29.4
2014-Sep-30 14:40 066 29.4
2014-Sep-30 14:36 059 29.4
2014-Sep-30 14:28 084 30.0
2014-Sep-30 14:26 330 29.4
2014-Sep-30 14:20 119 30.0
2014-Sep-30 14:15 119 30.0
2014-Sep-30 14:05 119 30.6
2014-Sep-30 13:59 119 30.0
2014-Sep-30 13:55 042 29.4
2014-Sep-30 13:49 060 0 gusting 5 28.9
2014-Sep-30 13:45 112 3 gusting 6 28.3
2014-Sep-30 13:39 351 28.3
2014-Sep-30 13:35 067 28.3
2014-Sep-30 13:29 060 27.8
2014-Sep-30 13:25 126 3 gusting 3 28.3
2014-Sep-30 13:21 056 28.3
2014-Sep-30 13:15 139 0 gusting 5 27.8
2014-Sep-30 13:11 039 1 gusting 2 28.9
2014-Sep-30 13:03 149 28.3
2014-Sep-30 13:00 149 28.3
2014-Sep-30 12:54 088 27.2
2014-Sep-30 12:50 143 0 gusting 2 27.8
2014-Sep-30 12:44 073 27.8
2014-Sep-30 12:40 075 28.3
2014-Sep-30 12:34 075 27.8
2014-Sep-30 12:30 075 27.8
2014-Sep-30 12:22 094 1 27.2
2014-Sep-30 12:20 075 27.2
2014-Sep-30 12:14 075 26.7
2014-Sep-30 12:10 050 26.7
2014-Sep-30 12:06 073 26.7
2014-Sep-30 12:00 087 1 gusting 4 26.7
2014-Sep-30 11:56 112 4 gusting 5 26.7
2014-Sep-30 11:48 078 26.1
2014-Sep-30 11:46 254 26.7
2014-Sep-30 11:39 095 26.1
2014-Sep-30 11:35 084 25.6
2014-Sep-30 11:29 018 25.0
2014-Sep-30 11:25 018 24.4
2014-Sep-30 11:17 337 24.4
2014-Sep-30 11:15 343 24.4
2014-Sep-30 11:09 071 23.9
2014-Sep-30 11:03 071 23.9
2014-Sep-30 10:59 099 23.3
2014-Sep-30 10:55 011 23.3
2014-Sep-30 10:49 119 22.8
2014-Sep-30 10:45 054 22.8
2014-Sep-30 10:41 320 22.8
2014-Sep-30 10:35 347 22.2
2014-Sep-30 10:31 354 21.7
2014-Sep-30 10:24 354 21.1
2014-Sep-30 10:20 329 21.7
2014-Sep-30 10:14 329 21.1
2014-Sep-30 10:06 329 21.1
2014-Sep-30 10:04 329 20.6
2014-Sep-30 10:00 077 20.6
2014-Sep-30 09:54 098 20.0
2014-Sep-30 09:50 348 20.0
2014-Sep-30 09:44 327 20.0
2014-Sep-30 09:40 336 20.0
2014-Sep-30 09:34 345 20.0
2014-Sep-30 09:30 108 20.0
2014-Sep-30 09:26 108 19.4
2014-Sep-30 09:20 108 18.9
2014-Sep-30 09:16 154 18.9
2014-Sep-30 09:07 112 18.9
2014-Sep-30 09:05 085 18.9
2014-Sep-30 08:57 085 18.9
2014-Sep-30 08:55 085 18.9
2014-Sep-30 08:49 078 18.9
2014-Sep-30 08:45 347 18.3
2014-Sep-30 08:39 033 18.3
2014-Sep-30 08:35 033 18.3
2014-Sep-30 08:29 067 18.3
2014-Sep-30 08:25 057 18.3
2014-Sep-30 08:19 139 3 gusting 1 18.3
2014-Sep-30 08:15 057 18.3
2014-Sep-30 08:11 088 18.3
2014-Sep-30 08:05 088 18.3
2014-Sep-30 08:01 088 18.3
2014-Sep-30 07:55 070 18.3
2014-Sep-30 07:50 070 18.3
2014-Sep-30 07:44 091 18.9
2014-Sep-30 07:40 099 18.9
2014-Sep-30 07:34 046 18.9
2014-Sep-30 07:30 046 18.3
2014-Sep-30 07:24 129 18.3
2014-Sep-30 07:20 129 17.8
2014-Sep-30 07:14 306 17.2
2014-Sep-30 07:10 306 16.1
2014-Sep-30 07:04 306 16.1
2014-Sep-30 06:58 306 16.1
2014-Sep-30 06:54 306 15.6
2014-Sep-30 06:50 306 15.6
2014-Sep-30 06:46 306 15.0
2014-Sep-30 06:38 306 15.0
2014-Sep-30 06:36 306 15.0
2014-Sep-30 06:29 306 15.0
2014-Sep-30 06:25 306 15.0
2014-Sep-30 06:19 306 15.0
2014-Sep-30 06:15 306 15.0
2014-Sep-30 06:09 306 15.0
2014-Sep-30 06:05 306 15.0
2014-Sep-30 05:59 306 15.0
2014-Sep-30 05:55 306 15.0
2014-Sep-30 05:49 306 15.0
2014-Sep-30 05:45 306 15.0
2014-Sep-30 04:50 330 15.0
2014-Sep-30 04:44 330 15.0
2014-Sep-30 04:40 330 15.6
2014-Sep-30 04:34 298 15.0
2014-Sep-30 04:30 298 15.0
2014-Sep-30 04:24 298 15.6
2014-Sep-30 04:20 298 15.0
2014-Sep-30 04:16 306 15.0
2014-Sep-30 04:10 120 15.0
2014-Sep-30 04:06 120 15.6
2014-Sep-30 03:57 120 15.6
2014-Sep-30 03:55 120 15.6
2014-Sep-30 03:49 327 15.6
2014-Sep-30 03:45 327 15.6
2014-Sep-30 03:39 327 15.6
2014-Sep-30 03:35 327 15.6
2014-Sep-30 03:29 327 15.6
2014-Sep-30 03:25 327 15.6
2014-Sep-30 03:19 327 15.6
2014-Sep-30 03:15 327 15.6
2014-Sep-30 03:09 327 15.6
2014-Sep-30 03:05 327 15.6
2014-Sep-30 03:01 327 15.6
2014-Sep-30 02:55 005 15.6
2014-Sep-30 02:51 005 15.6
2014-Sep-30 02:45 005 15.6
2014-Sep-30 02:41 005 15.6
2014-Sep-30 02:34 315 15.6
2014-Sep-30 02:30 315 16.1
2014-Sep-30 02:24 315 16.1
2014-Sep-30 02:20 315 16.1
2014-Sep-30 02:14 315 16.1
2014-Sep-30 02:10 315 16.1
2014-Sep-30 02:04 315 16.1
2014-Sep-30 02:00 315 16.1
2014-Sep-30 01:54 315 16.1
2014-Sep-30 01:50 315 16.1
2014-Sep-30 01:46 315 16.1
2014-Sep-30 01:40 315 16.1
2014-Sep-30 01:36 315 16.1
2014-Sep-30 01:28 315 16.1
2014-Sep-30 01:26 315 16.1
2014-Sep-30 01:19 315 16.1
2014-Sep-30 01:15 315 16.1
2014-Sep-30 01:09 315 16.7
2014-Sep-30 01:05 315 16.1
2014-Sep-30 00:59 315 16.7
2014-Sep-30 00:55 315 16.1
2014-Sep-30 00:49 357 16.1
2014-Sep-30 00:45 357 16.7
2014-Sep-30 00:39 345 16.7
2014-Sep-30 00:35 345 16.7
2014-Sep-30 00:29 337 16.7
2014-Sep-30 00:25 337 16.7
2014-Sep-30 00:21 337 16.7
2014-Sep-30 00:15 337 16.7
2014-Sep-30 00:11 337 16.7
2014-Sep-30 00:05 337 0 16.7
2014-Sep-30 00:00 344 16.7
2014-Sep-29 23:54 344 16.7
2014-Sep-29 23:50 341 16.7
2014-Sep-29 23:44 323 16.7
2014-Sep-29 23:40 358 16.7
2014-Sep-29 23:34 352 16.7
2014-Sep-29 23:30 317 16.7
2014-Sep-29 23:24 354 16.7
2014-Sep-29 23:20 338 16.7
2014-Sep-29 23:14 351 16.7
2014-Sep-29 23:10 351 17.2
2014-Sep-29 23:06 351 17.2
2014-Sep-29 23:00 351 17.2
2014-Sep-29 22:56 351 17.2
2014-Sep-29 22:50 358 17.2
2014-Sep-29 22:45 333 17.2
2014-Sep-29 22:39 333 17.2
2014-Sep-29 22:35 333 17.2
2014-Sep-29 22:29 026 17.8
2014-Sep-29 22:25 026 17.8
2014-Sep-29 22:19 316 1 gusting 3 17.8
2014-Sep-29 22:15 352 17.8
2014-Sep-29 22:09 279 0 gusting 2 17.8
2014-Sep-29 22:05 316 17.8
2014-Sep-29 21:59 316 18.3
2014-Sep-29 21:55 316 18.3
2014-Sep-29 21:51 327 17.8
2014-Sep-29 21:45 329 18.3
2014-Sep-29 21:39 341 18.3
2014-Sep-29 21:35 351 18.3
2014-Sep-29 21:30 331 0 gusting 2 18.3
2014-Sep-29 21:24 336 18.3
2014-Sep-29 21:20 316 18.3
2014-Sep-29 21:14 285 18.3
2014-Sep-29 21:10 309 18.9
2014-Sep-29 21:04 305 18.9
2014-Sep-29 21:00 292 18.9
2014-Sep-29 20:54 270 0 gusting 6 18.9
2014-Sep-29 20:50 316 18.9
2014-Sep-29 20:44 320 18.9
2014-Sep-29 20:40 338 18.9
2014-Sep-29 20:36 348 1 gusting 1 18.9
2014-Sep-29 20:30 338 18.9
2014-Sep-29 20:26 347 18.9
2014-Sep-29 20:20 334 18.9
2014-Sep-29 20:13 336 0 gusting 3 18.9
2014-Sep-29 20:09 320 18.9
2014-Sep-29 20:05 350 1 gusting 2 18.9
2014-Sep-29 19:57 011 0 gusting 4 19.4
2014-Sep-29 19:53 004 0 gusting 6 19.4
2014-Sep-29 19:49 348 1 gusting 6 19.4
2014-Sep-29 19:45 326 20.0
2014-Sep-29 19:39 324 20.0
2014-Sep-29 19:35 334 20.0
2014-Sep-29 19:27 350 20.0
2014-Sep-29 19:25 284 0 gusting 5 20.6
2014-Sep-29 19:19 313 20.0
2014-Sep-29 19:15 344 0 gusting 4 20.6
2014-Sep-29 19:11 009 0 gusting 2 20.6
2014-Sep-29 19:05 315 20.6
2014-Sep-29 19:01 310 20.6
2014-Sep-29 18:52 049 21.1
2014-Sep-29 18:48 319 21.1
2014-Sep-29 18:44 334 21.1
2014-Sep-29 18:40 357 21.1
2014-Sep-29 18:34 029 3 gusting 6 21.1
2014-Sep-29 18:30 310 21.1
2014-Sep-29 18:24 358 1 gusting 7 21.1
2014-Sep-29 18:20 333 3 gusting 11 21.1
2014-Sep-29 18:14 345 0 gusting 6 21.7
2014-Sep-29 18:10 341 3 gusting 8 22.2
2014-Sep-29 18:02 330 1 gusting 4 22.8
2014-Sep-29 18:00 012 1 gusting 4 22.8
2014-Sep-29 17:56 305 0 gusting 5 22.8
2014-Sep-29 17:50 333 2 gusting 6 22.8
2014-Sep-29 17:46 358 1 gusting 10 22.8
2014-Sep-29 17:37 344 5 gusting 8 22.8
2014-Sep-29 17:35 347 9 gusting 8 23.3
2014-Sep-29 17:27 329 0 gusting 8 23.9
2014-Sep-29 17:25 358 3 gusting 8 23.9
2014-Sep-29 17:19 331 4 gusting 7 23.9
2014-Sep-29 17:15 358 1 gusting 7 23.9
2014-Sep-29 17:07 313 5 gusting 11 23.9
2014-Sep-29 17:05 018 4 gusting 11 23.9
2014-Sep-29 16:59 23.9
2014-Sep-29 16:55 324 1 gusting 9 23.9
2014-Sep-29 16:49 319 3 gusting 11 23.9
2014-Sep-29 16:45 344 6 gusting 8 23.9
2014-Sep-29 16:41 341 4 gusting 7 23.9
2014-Sep-29 16:33 344 2 gusting 7 23.9
2014-Sep-29 16:31 331 3 gusting 7 23.9
2014-Sep-29 16:25 344 3 gusting 7 23.9
2014-Sep-29 16:21 358 2 gusting 8 24.4
2014-Sep-29 16:14 25.0
2014-Sep-29 16:10 319 5 gusting 6 25.6
2014-Sep-29 16:04 028 25.0
2014-Sep-29 15:56 358 2 gusting 8 24.4
2014-Sep-29 15:52 358 4 gusting 8 24.4
2014-Sep-29 15:50 341 1 gusting 8 24.4
2014-Sep-29 15:44 343 2 gusting 6 25.6
2014-Sep-29 15:40 326 0 gusting 7 25.6
2014-Sep-29 15:34 334 0 gusting 7 25.6
2014-Sep-29 15:30 337 5 gusting 8 26.1
2014-Sep-29 15:26 323 2 gusting 6 26.7
2014-Sep-29 15:20 350 1 gusting 7 26.7
2014-Sep-29 15:16 337 3 gusting 7 26.7
2014-Sep-29 15:08 345 1 gusting 5 26.1
2014-Sep-29 15:06 341 2 gusting 5 26.7
2014-Sep-29 14:59 327 26.7
2014-Sep-29 14:55 326 26.1
2014-Sep-29 14:49 324 1 gusting 6 26.1
2014-Sep-29 14:45 316 1 gusting 8 26.7
2014-Sep-29 14:39 333 3 gusting 6 25.6
2014-Sep-29 14:35 302 5 gusting 7 25.0
2014-Sep-29 14:29 345 4 gusting 9 25.6
2014-Sep-29 14:25 322 4 gusting 7 27.2
2014-Sep-29 14:19 317 2 gusting 7 27.8
2014-Sep-29 14:11 319 0 gusting 6 26.7
2014-Sep-29 14:09 316 26.7
2014-Sep-29 14:03 343 0 gusting 5 26.1
2014-Sep-29 14:01 324 1 gusting 5 26.7
2014-Sep-29 13:55 014 26.1
2014-Sep-29 13:51 348 26.1
2014-Sep-29 13:44 302 26.7
2014-Sep-29 13:40 302 26.7
2014-Sep-29 13:34 316 26.1
2014-Sep-29 13:30 338 25.6
2014-Sep-29 13:24 317 25.6
2014-Sep-29 13:20 341 26.7
2014-Sep-29 13:14 345 27.2
2014-Sep-29 13:10 312 26.1
2014-Sep-29 13:04 331 26.1
2014-Sep-29 12:58 300 2 gusting 5 26.1
2014-Sep-29 12:54 345 26.1
2014-Sep-29 12:50 300 1 gusting 5 25.6
2014-Sep-29 12:46 319 25.6
2014-Sep-29 12:38 350 25.6
2014-Sep-29 12:36 324 26.1
2014-Sep-29 12:30 074 25.6
2014-Sep-29 12:26 313 0 gusting 5 25.6
2014-Sep-29 12:19 315 1 gusting 6 25.6
2014-Sep-29 12:15 347 2 gusting 1 25.6
2014-Sep-29 12:09 323 25.6
2014-Sep-29 12:05 333 1 gusting 4 25.0
2014-Sep-29 11:59 347 25.0
2014-Sep-29 11:55 291 25.0
2014-Sep-29 11:49 268 24.4
2014-Sep-29 11:45 307 24.4
2014-Sep-29 11:39 307 25.0
2014-Sep-29 11:35 295 25.6
2014-Sep-29 11:31 295 25.0
2014-Sep-29 11:25 295 23.9
2014-Sep-29 11:21 295 23.3
2014-Sep-29 11:15 310 23.3
2014-Sep-29 11:10 319 22.8
2014-Sep-29 11:04 282 22.2
2014-Sep-29 11:00 282 21.7
2014-Sep-29 10:54 326 2 gusting 3 22.2
2014-Sep-29 10:50 299 22.2
2014-Sep-29 10:44 289 22.2
2014-Sep-29 10:40 310 22.2
2014-Sep-29 10:34 327 22.2
2014-Sep-29 10:30 327 22.2
2014-Sep-29 10:20 327 21.1
2014-Sep-29 10:16 327 21.1
2014-Sep-29 10:10 340 21.1
2014-Sep-29 10:04 340 21.1
2014-Sep-29 09:58 340 20.6
2014-Sep-29 09:56 340 20.6
2014-Sep-29 09:49 340 20.6
2014-Sep-29 09:45 340 20.0
2014-Sep-29 09:37 344 20.0
2014-Sep-29 09:33 344 20.0
2014-Sep-29 09:29 336 20.0
2014-Sep-29 09:25 334 20.0
2014-Sep-29 09:19 334 20.0
2014-Sep-29 09:15 334 19.4
2014-Sep-29 09:09 334 19.4
2014-Sep-29 09:05 334 18.9
2014-Sep-29 09:01 334 18.9
2014-Sep-29 08:55 334 18.9
2014-Sep-29 08:51 334 18.9
2014-Sep-29 08:45 334 18.3
2014-Sep-29 08:39 334 18.3
2014-Sep-29 08:35 334 18.3
2014-Sep-29 08:28 334 18.3
2014-Sep-29 08:22 334 18.3
2014-Sep-29 08:20 334 18.3
2014-Sep-29 08:14 334 18.3
2014-Sep-29 08:10 334 18.9
2014-Sep-29 08:04 334 18.9
2014-Sep-29 08:00 334 19.4